Home   Weather   Galapagos Islands   Past weeks

Flag for Ecuador Past Weather in Galapagos Islands, Ecuador — Yesterday and Last 2 Weeks

Now
72 °F

Passing clouds.


Feels Like: 67 °F
Forecast: 70 / 74 °F
Wind: 2 mph from Southwest

Location: Manta Airport

Current Time: Jul 21, 2017 at 12:36:28 am

Latest Report: Jul 21, 2017 at 12:00 am


Visibility: N/A

Pressure: 29.95 "Hg

Humidity: 94%

Dew Point: 70 °F

Location of Galapagos IslandsLocation

Past Weather in Galapagos Islands — Graph

°F

Galapagos Islands Temperature Yesterday

Maximum temperature yesterday: 81 °F (at 11:00 am)
Minimum temperature yesterday: 72 °F (at 3:00 am)
Average temperature yesterday: 75 °F

High & Low Weather Summary for the Past Weeks

 TemperatureHumidityPressure
High84 °F (Jul 12, 1:00 pm)94% (Jul 6, 4:00 am)30.01 "Hg (Jul 6, 4:00 am)
Low70 °F (Jul 17, 5:00 am)58% (Jul 16, 12:00 pm)29.83 "Hg (Jul 6, 4:00 pm)
Average75 °F85%29.91 "Hg
* Reported Jul 5 11:00 pm — Jul 20 11:00 pm, Galapagos Islands. Weather by CustomWeather, © 2017

Note: Actual official high and low records may vary slightly from our data, if they occured in-between our weather recording intervals... More about our weather records

Advertising

Galapagos Islands Weather History for the Previous 24 Hours

Scroll right to see more
 ConditionsComfort  
Time TempWeatherWind HumidityBarometerVisibility
11:00 pm
Thu, Jul 20
72 °FPassing clouds.5 mph94%29.95 "HgN/A
10:00 pm72 °FPassing clouds.5 mph94%29.95 "HgN/A
9:00 pm72 °FPassing clouds.5 mph94%29.92 "HgN/A
8:00 pm72 °FPassing clouds.5 mph94%29.92 "HgN/A
7:00 pm73 °FOvercast.7 mph94%29.89 "HgN/A
6:00 pm75 °FOvercast.9 mph89%29.89 "HgN/A
5:00 pm77 °FPartly sunny.9 mph83%29.86 "HgN/A
4:00 pm79 °FPartly sunny.12 mph84%29.86 "HgN/A
3:00 pm81 °FScattered clouds.12 mph70%29.86 "HgN/A
2:00 pm81 °FScattered clouds.9 mph70%29.86 "HgN/A
1:00 pm79 °FBroken clouds.7 mph70%29.89 "HgN/A
12:00 pm79 °FBroken clouds.6 mph74%29.92 "HgN/A
11:00 am81 °FBroken clouds.3 mph74%29.95 "HgN/A
10:00 am79 °FBroken clouds.5 mph74%29.92 "HgN/A
8:00 am73 °FPartly sunny.7 mph89%29.98 "HgN/A
7:00 am72 °FPartly sunny.6 mph88%29.95 "HgN/A
6:00 am72 °FPartly sunny.5 mph88%29.95 "HgN/A
5:00 am72 °FPassing clouds.2 mph94%29.92 "HgN/A
4:00 am72 °FPassing clouds.3 mph94%29.92 "HgN/A
3:00 am72 °FPassing clouds.3 mph94%29.92 "HgN/A
2:00 am73 °FPassing clouds.6 mph89%29.92 "HgN/A
1:00 am73 °FPassing clouds.6 mph89%29.95 "HgN/A
12:00 am73 °FPassing clouds.7 mph89%29.95 "HgN/A
Weather by CustomWeather, © 2017

See weather overviewHow to use our weather pages